• In Hungary
  • List of Countries
  • For 7 days
  • Water Temperature
  • Satellite Maps
  • Weather Map
  • News
  • Weather Widgets
  • user-avatar
    Login

    Hourly Weather Frolevo

    Today, 27 May, Sunday

    Time Temperature Precipitation Wind Pressure Humidity
    00:00 +12°C° 0 mm 2 mps 749 mmHg 77%
    01:00 +12°C° 0 mm 2 mps 749 mmHg 79%
    02:00 +10°C° 0 mm 1 mps 748 mmHg 89%
    03:00 +10°C° 0 mm 2 mps 748 mmHg 87%
    04:00 +11°C° 0 mm 3 mps 748 mmHg 85%
    05:00 +12°C° 0 mm 3 mps 747 mmHg 83%
    06:00 +14°C° 0 mm 3 mps 747 mmHg 76%
    07:00 +17°C° 0 mm 4 mps 747 mmHg 70%
    08:00 +19°C° 0 mm 4 mps 746 mmHg 64%
    09:00 +21°C° 0 mm 4 mps 746 mmHg 59%
    10:00 +22°C° 0 mm 4 mps 746 mmHg 54%
    11:00 +25°C° 0 mm 4 mps 746 mmHg 49%
    12:00 +25°C° 0 mm 4 mps 745 mmHg 48%
    13:00 +26°C° 0 mm 4 mps 745 mmHg 47%
    14:00 +26°C° 0 mm 5 mps 745 mmHg 45%
    15:00 +25°C° 0 mm 4 mps 745 mmHg 47%
    16:00 +25°C° 0 mm 4 mps 744 mmHg 50%
    17:00 +24°C° 0 mm 3 mps 744 mmHg 52%
    18:00 +21°C° 0 mm 3 mps 745 mmHg 53%
    19:00 +18°C° 0 mm 3 mps 745 mmHg 54%
    20:00 +16°C° 0 mm 3 mps 745 mmHg 54%
    21:00 +13°C° 0 mm 3 mps 746 mmHg 55%
    22:00 +12°C° 0 mm 3 mps 747 mmHg 57%
    23:00 +12°C° 0 mm 2 mps 747 mmHg 58%

    Tomorrow, 28 May, Monday

    Time Temperature Precipitation Wind Pressure Humidity
    00:00 +10°C° 0 mm 2 mps 748 mmHg 56%
    01:00 +9°C° 0 mm 2 mps 749 mmHg 54%
    02:00 +8°C° 0 mm 2 mps 749 mmHg 52%
    03:00 +8°C° 0 mm 2 mps 750 mmHg 52%
    04:00 +8°C° 0 mm 2 mps 750 mmHg 52%
    05:00 +8°C° 0 mm 2 mps 751 mmHg 51%
    06:00 +10°C° 0 mm 2 mps 751 mmHg 46%
    07:00 +13°C° 0 mm 2 mps 751 mmHg 40%
    08:00 +14°C° 0 mm 3 mps 752 mmHg 34%
    09:00 +16°C° 0 mm 3 mps 752 mmHg 32%
    10:00 +17°C° 0 mm 2 mps 752 mmHg 30%
    11:00 +18°C° 0 mm 2 mps 752 mmHg 28%
    12:00 +19°C° 0 mm 2 mps 752 mmHg 27%
    13:00 +19°C° 0 mm 2 mps 752 mmHg 27%
    14:00 +20°C° 0 mm 2 mps 751 mmHg 26%
    15:00 +20°C° 0 mm 2 mps 751 mmHg 28%
    16:00 +20°C° 0 mm 2 mps 751 mmHg 30%
    17:00 +19°C° 0 mm 2 mps 751 mmHg 33%
    18:00 +18°C° 0 mm 1 mps 750 mmHg 40%
    19:00 +15°C° 0 mm 1 mps 750 mmHg 48%
    20:00 +13°C° 0 mm 1 mps 750 mmHg 56%
    21:00 +12°C° 0 mm 1 mps 750 mmHg 57%
    22:00 +11°C° 0 mm 1 mps 751 mmHg 58%
    23:00 +10°C° 0 mm 1 mps 751 mmHg 59%

    Day after tomorrow, 29 May, Tuesday

    Time Temperature Precipitation Wind Pressure Humidity
    00:00 +10°C° 0 mm 1 mps 751 mmHg 61%
    01:00 +10°C° 0 mm 1 mps 751 mmHg 62%
    02:00 +8°C° 0 mm 2 mps 751 mmHg 64%
    03:00 +9°C° 0 mm 2 mps 751 mmHg 64%
    04:00 +9°C° 0 mm 2 mps 750 mmHg 64%
    05:00 +10°C° 0 mm 2 mps 750 mmHg 65%
    06:00 +13°C° 0 mm 2 mps 750 mmHg 58%
    07:00 +15°C° 0 mm 2 mps 750 mmHg 51%
    08:00 +18°C° 0 mm 2 mps 749 mmHg 45%
    09:00 +19°C° 0 mm 3 mps 749 mmHg 41%
    10:00 +21°C° 0 mm 3 mps 748 mmHg 37%
    11:00 +22°C° 0 mm 3 mps 748 mmHg 33%
    12:00 +24°C° 0 mm 3 mps 747 mmHg 33%
    13:00 +24°C° 0 mm 3 mps 746 mmHg 33%
    14:00 +25°C° 0 mm 4 mps 746 mmHg 34%
    15:00 +25°C° 0 mm 4 mps 745 mmHg 37%
    16:00 +25°C° 0 mm 4 mps 744 mmHg 41%
    17:00 +23°C° 0 mm 4 mps 744 mmHg 45%
    18:00 +21°C° 0 mm 3 mps 743 mmHg 54%
    19:00 +20°C° 0 mm 3 mps 743 mmHg 63%
    20:00 +18°C° 0 mm 2 mps 742 mmHg 73%
    21:00 +17°C° 0 mm 2 mps 742 mmHg 75%
    22:00 +16°C° 0 mm 2 mps 742 mmHg 77%
    23:00 +16°C° 0 mm 3 mps 741 mmHg 80%

    30 May, Wednesday

    Time Temperature Precipitation Wind Pressure Humidity
    00:00 +14°C° 0 mm 3 mps 741 mmHg 82%
    01:00 +14°C° 0 mm 3 mps 741 mmHg 84%
    02:00 +14°C° 0 mm 3 mps 740 mmHg 86%
    03:00 +16°C° 0 mm 3 mps 740 mmHg 85%
    04:00 +15°C° 0 mm 4 mps 739 mmHg 84%
    05:00 +17°C° 0 mm 4 mps 739 mmHg 83%
    06:00 +18°C° 0 mm 4 mps 739 mmHg 75%
    07:00 +20°C° 0 mm 5 mps 738 mmHg 68%
    08:00 +21°C° 0 mm 6 mps 738 mmHg 60%
    09:00 +22°C° 0 mm 6 mps 737 mmHg 54%
    10:00 +24°C° 0 mm 6 mps 737 mmHg 49%
    11:00 +26°C° 0 mm 6 mps 737 mmHg 43%
    12:00 +26°C° 0 mm 6 mps 736 mmHg 42%
    13:00 +26°C° 0 mm 6 mps 736 mmHg 41%
    14:00 +27°C° 0 mm 6 mps 736 mmHg 40%
    15:00 +26°C° 0 mm 6 mps 735 mmHg 42%
    16:00 +25°C° 0 mm 5 mps 735 mmHg 44%
    17:00 +23°C° 0 mm 4 mps 735 mmHg 46%
    18:00 +21°C° 0 mm 4 mps 735 mmHg 51%
    19:00 +19°C° 0 mm 3 mps 735 mmHg 55%
    20:00 +17°C° 0 mm 2 mps 735 mmHg 60%
    21:00 +15°C° 0 mm 2 mps 735 mmHg 62%
    22:00 +14°C° 0 mm 2 mps 735 mmHg 64%
    23:00 +12°C° 0 mm 2 mps 735 mmHg 66%

    31 May, Thursday

    Time Temperature Precipitation Wind Pressure Humidity
    00:00 +12°C° 0 mm 2 mps 735 mmHg 65%
    01:00 +12°C° 0 mm 2 mps 736 mmHg 63%
    02:00 +10°C° 0 mm 3 mps 736 mmHg 62%
    03:00 +10°C° 0 mm 3 mps 736 mmHg 65%
    04:00 +10°C° 0 mm 3 mps 737 mmHg 67%
    05:00 +10°C° 0 mm 4 mps 737 mmHg 70%
    06:00 +10°C° 0 mm 4 mps 737 mmHg 68%
    07:00 +11°C° 0 mm 4 mps 738 mmHg 66%
    08:00 +11°C° 0 mm 4 mps 738 mmHg 64%
    09:00 +13°C° 0 mm 4 mps 738 mmHg 56%
    10:00 +14°C° 0 mm 4 mps 738 mmHg 49%
    11:00 +15°C° 0 mm 4 mps 739 mmHg 41%
    12:00 +15°C° 0 mm 4 mps 739 mmHg 38%
    13:00 +15°C° 0 mm 4 mps 739 mmHg 34%
    14:00 +15°C° 0 mm 4 mps 739 mmHg 31%
    15:00 +15°C° 0 mm 4 mps 739 mmHg 31%
    16:00 +14°C° 0 mm 4 mps 739 mmHg 31%
    17:00 +14°C° 0 mm 4 mps 739 mmHg 31%
    18:00 +12°C° 0 mm 3 mps 739 mmHg 37%
    19:00 +10°C° 0 mm 3 mps 739 mmHg 43%
    20:00 +9°C° 0 mm 2 mps 740 mmHg 49%
    21:00 +8°C° 0 mm 3 mps 740 mmHg 52%
    22:00 +7°C° 0 mm 3 mps 740 mmHg 55%
    23:00 +4°C° 0 mm 3 mps 741 mmHg 57%

    1 June, Friday

    Time Temperature Precipitation Wind Pressure Humidity
    00:00 +4°C° 0 mm 3 mps 741 mmHg 60%
    01:00 +3°C° 0 mm 3 mps 741 mmHg 62%
    02:00 +2°C° 0 mm 3 mps 741 mmHg 64%
    03:00 +2°C° 0 mm 3 mps 742 mmHg 64%
    04:00 +3°C° 0 mm 3 mps 742 mmHg 63%
    05:00 +3°C° 0 mm 3 mps 742 mmHg 62%
    06:00 +4°C° 0 mm 3 mps 742 mmHg 57%
    07:00 +7°C° 0 mm 3 mps 742 mmHg 51%
    08:00 +8°C° 0 mm 3 mps 743 mmHg 46%
    09:00 +9°C° 0 mm 3 mps 743 mmHg 44%
    10:00 +9°C° 0 mm 3 mps 743 mmHg 42%
    11:00 +10°C° 0 mm 3 mps 743 mmHg 40%
    12:00 +10°C° 0 mm 3 mps 742 mmHg 39%
    13:00 +11°C° 0 mm 3 mps 742 mmHg 38%
    14:00 +11°C° 0 mm 3 mps 742 mmHg 37%
    15:00 +11°C° 0 mm 3 mps 742 mmHg 37%
    16:00 +11°C° 0 mm 3 mps 742 mmHg 38%
    17:00 +11°C° 0 mm 3 mps 742 mmHg 38%
    18:00 +9°C° 0 mm 3 mps 742 mmHg 43%
    19:00 +8°C° 0 mm 2 mps 742 mmHg 47%
    20:00 +7°C° 0 mm 2 mps 742 mmHg 52%
    21:00 +6°C° 0 mm 2 mps 743 mmHg 54%
    22:00 +5°C° 0 mm 2 mps 743 mmHg 56%
    23:00 +5°C° 0 mm 2 mps 743 mmHg 58%
    Show more